[[{"header":{"parameterUnit":"m.s-1","parameterCategory":1,"la1":30.2991,"la2":30.254,"lo1":-89.0895,"lo2":-89.0444,"dy":0.0017,"dx":0.0017,"nx":28,"ny":28,"refTime":"2025-04-19T03:00:00:Z","depth":0,"parameterNumber":2,"parameterNumberName":"U-component_of_WINDS"},"data":[0,0,0,0,0,0,0,0,0,0,0,0,0,0,0,0,0,0,0,0,0,0,0,0,0,0,0,0,0,0,0,0,0,0,0,0,0,0,0,0,0,0,0,0,0,0,0,0,0,0,0,0,0,0,0,0,0,0,-5.1774,-5.1775,0,-5.1852,-5.1853,-5.1854,-5.1812,-5.181,-5.1808,-5.1806,-5.1882,-5.1886,-5.189,0,0,0,0,0,0,0,0,0,0,0,0,0,-5.1585,-5.1589,-5.1774,-5.1775,-5.1776,-5.1852,-5.1853,-5.1854,-5.1813,-5.181,-5.1808,-5.1805,-5.1881,-5.1885,-5.189,0,0,0,0,0,0,0,0,0,0,0,0,0,-5.1665,-5.159,-5.1774,-5.1765,-5.1765,-5.1852,-5.1853,-5.1855,-5.1813,-5.181,-5.1807,-5.1804,-5.1879,-5.1885,-5.1891,-5.199,0,0,-5.1909,-5.1911,0,0,0,0,0,0,0,0,-5.1661,-5.1672,-5.1765,-5.1766,-5.1766,-5.182,-5.1814,-5.19,-5.1814,-5.1795,-5.1806,-5.1802,-5.1863,-5.187,-5.1892,-5.1994,-5.1997,-5.1909,-5.1913,-5.1916,-5.1917,0,0,0,0,0,0,0,-5.1655,-5.1669,-5.1805,-5.1767,-5.1767,-5.1755,-5.1763,-5.183,-5.1846,-5.1796,-5.1793,-5.1803,-5.1863,-5.1886,-5.1893,-5.1998,-5.1909,-5.1914,-5.1918,-5.192,-5.2184,-5.2187,0,0,0,0,0,0,-5.1651,-5.1664,-5.1803,-5.1807,-5.1705,-5.1761,-5.177,-5.1805,-5.1845,-5.1848,-5.1806,-5.1801,-5.1878,-5.1886,-5.1896,-5.2013,-5.1915,-5.1921,-5.1924,-5.218,-5.2185,-5.2188,0,0,0,0,0,0,-5.1647,-5.1664,-5.1799,-5.1735,-5.1752,-5.1768,-5.1808,-5.1809,-5.1832,-5.1852,-5.1854,-5.1827,-5.1875,-5.1887,-5.1967,-5.2015,-5.1924,-5.1929,-5.2176,-5.2182,-5.2186,-5.2249,0,0,0,0,0,0,-5.1642,-5.1663,-5.1702,-5.1737,-5.1755,-5.1871,-5.1811,-5.1812,-5.1843,-5.1837,-5.1873,-5.1876,-5.1874,-5.1958,-5.1973,-5.2021,-5.1934,-5.2172,-5.2179,-5.2185,-5.2243,-5.2256,-5.2267,0,0,0,0,0,-5.1635,-5.1716,-5.1704,-5.1721,-5.1805,-5.1874,-5.1884,-5.1882,-5.1847,-5.1885,-5.1898,-5.1874,-5.2008,-5.1967,-5.1983,-5.2034,-5.2169,-5.2177,-5.2184,-5.2237,-5.2253,-5.2267,0,0,0,0,0,0,-5.1684,-5.172,-5.1707,-5.1802,-5.1835,-5.1866,-5.1915,-5.1899,-5.1942,-5.1935,-5.1929,-5.1937,-5.2019,-5.2035,-5.1988,-5.2132,-5.2083,-5.2094,-5.2118,-5.2133,-5.2145,-5.2138,-5.1939,0,0,0,0,0,-5.1707,-5.1761,-5.1789,-5.1869,-5.1887,-5.1898,-5.1928,-5.1924,-5.1957,-5.1971,-5.199,-5.2022,-5.2071,-5.2104,-5.215,-5.2246,-5.2252,-5.2289,-5.2301,-5.2311,-5.232,-5.2369,-5.2385,-5.2214,-5.2214,-5.2213,0,0,-5.1752,-5.1778,-5.1813,-5.188,-5.1905,-5.196,-5.191,-5.1971,-5.201,-5.198,-5.2055,-5.2071,-5.2107,-5.2194,-5.2234,-5.221,-5.2369,-5.2321,-5.2329,-5.2332,-5.2379,-5.2395,-5.2409,-5.2219,-5.2218,-5.2217,0,0,-5.1862,-5.1889,-5.1958,-5.1985,-5.2024,-5.2031,-5.2048,-5.2082,-5.2091,-5.2168,-5.2146,-5.2193,-5.2278,-5.2304,-5.2328,-5.2449,-5.2428,-5.2465,-5.2526,-5.2574,-5.2588,-5.26,-5.264,-5.2655,-5.2474,-5.2474,-5.2474,0,-5.1913,-5.1996,-5.1995,-5.2057,-5.2086,-5.2063,-5.2131,-5.2157,-5.2209,-5.2229,-5.2203,-5.2308,-5.2331,-5.2423,-5.2453,-5.2475,-5.2491,-5.2459,-5.2587,-5.2598,-5.2609,-5.2647,-5.2663,-5.2478,-5.2478,-5.2477,-5.2477,0,-5.2055,-5.2113,-5.2164,-5.2215,-5.2251,-5.2316,-5.2323,-5.2359,-5.2352,-5.2362,-5.2439,-5.2466,-5.2516,-5.2539,-5.2532,-5.263,-5.2613,-5.2587,-5.2537,-5.263,-5.2665,-5.268,-5.2484,-5.2482,-5.2481,-5.248,0,0,-5.2195,-5.2247,-5.2265,-5.2288,-5.233,-5.2374,-5.2438,-5.2489,-5.2518,-5.2556,-5.2607,-5.268,-5.2656,-5.2684,-5.268,-5.2723,-5.2813,-5.2691,-5.2692,-5.271,-5.2919,-5.2936,-5.2953,-5.2801,-5.2804,-5.2806,-5.2915,0,-5.2306,-5.2418,-5.2419,-5.2521,-5.2573,-5.2552,-5.2607,-5.2638,-5.265,-5.2694,-5.2706,-5.2757,-5.2723,-5.2739,-5.2781,-5.2794,-5.2855,-5.2786,-5.2846,-5.2848,-5.2834,-5.2972,-5.299,-5.3091,-5.2929,-5.2932,-5.2933,0,-5.2449,-5.2491,-5.2599,-5.2633,-5.2655,-5.2704,-5.275,-5.2794,-5.2829,-5.2834,-5.2865,-5.2855,-5.2918,-5.2869,-5.2954,-5.2908,-5.2933,-5.2943,-5.2947,-5.2949,-5.2893,-5.2975,-5.3124,-5.3138,-5.2956,-5.2954,-5.2952,0,-5.2536,-5.2621,-5.2696,-5.2716,-5.2759,-5.2793,-5.2812,-5.2844,-5.2874,-5.2915,-5.2933,-5.2981,-5.3005,-5.3041,-5.3043,-5.3009,-5.3128,-5.308,-5.3131,-5.3131,-5.3154,-5.3152,-5.3306,-5.3177,-5.3177,-5.3176,-5.3176,0,-5.2657,-5.2723,-5.2735,-5.2781,-5.2853,-5.2855,-5.2926,-5.2942,-5.297,-5.3017,-5.3003,-5.3047,-5.3049,-5.3094,-5.3096,-5.3165,-5.3177,-5.3181,-5.318,-5.318,-5.3179,-5.3193,-5.3185,-5.318,-5.3179,-5.3179,-5.3178,0,-5.2765,-5.2777,-5.2857,-5.2891,-5.2901,-5.2952,-5.2981,-5.3023,-5.3034,-5.3093,-5.3107,-5.3123,-5.3175,-5.3182,-5.3243,-5.3244,-5.3325,-5.3319,-5.3313,-5.3311,-5.336,-5.3354,-5.3526,-5.3547,-5.3407,-5.3409,-5.341,0,-5.284,-5.289,-5.293,-5.2961,-5.2982,-5.3033,-5.3063,-5.3067,-5.3099,-5.3142,-5.3179,-5.323,-5.327,-5.3354,-5.337,-5.3416,-5.3408,-5.3465,-5.3414,-5.3412,-5.3404,-5.34,-5.3404,-5.3473,-5.3475,-5.3476,-5.3477,0,-5.297,-5.2973,-5.3019,-5.3067,-5.3105,-5.3142,-5.3178,-5.3204,-5.3211,-5.3248,-5.3301,-5.3333,-5.3395,-5.3445,-5.349,-5.3508,-5.3493,-5.3494,-5.3507,-5.3506,-5.3499,-5.35,-5.3336,-5.3489,-5.3487,-5.3487,-5.3486,-5.3486,-5.3062,-5.3104,-5.3139,-5.319,-5.3217,-5.3251,-5.3292,-5.3308,-5.3353,-5.3404,-5.3404,-5.3462,-5.3494,-5.3554,-5.3575,-5.3619,-5.36,-5.3621,-5.3625,-5.3629,-5.3632,-5.3496,-5.3628,-5.3628,-5.3627,-5.3627,-5.3627,0,-5.3188,-5.3209,-5.3257,-5.3307,-5.3347,-5.3332,-5.337,-5.3404,-5.3455,-5.3488,-5.3528,-5.3589,-5.3637,-5.3657,-5.3704,-5.3735,-5.3729,-5.3747,-5.3743,-5.3747,-5.3648,-5.363,-5.3751,-5.3751,-5.3751,-5.3751,-5.3751,-5.3751,-5.3258,-5.3329,-5.3336,-5.342,-5.3441,-5.3498,-5.3521,-5.3551,-5.3576,-5.3645,-5.3685,-5.3699,-5.3726,-5.3775,-5.3817,-5.3822,-5.3838,-5.3858,-5.386,-5.3767,-5.3754,-5.3742,-5.3724,-5.3863,-5.3863,-5.3954,-5.3954,-5.3955]},{"header":{"parameterUnit":"m.s-1","parameterCategory":1,"la1":30.2991,"la2":30.254,"lo1":-89.0895,"lo2":-89.0444,"dy":0.0017,"dx":0.0017,"nx":28,"ny":28,"refTime":"2025-04-19T03:00:00:Z","depth":0,"parameterNumber":3,"parameterNumberName":"V-component_of_WINDS"},"data":[0,0,0,0,0,0,0,0,0,0,0,0,0,0,0,0,0,0,0,0,0,0,0,0,0,0,0,0,0,0,0,0,0,0,0,0,0,0,0,0,0,0,0,0,0,0,0,0,0,0,0,0,0,0,0,0,0,0,4.3918,4.392,0,4.4084,4.4086,4.4088,4.411,4.4109,4.4107,4.4106,4.4271,4.4276,4.4282,0,0,0,0,0,0,0,0,0,0,0,0,0,4.3616,4.3622,4.3918,4.392,4.3922,4.4084,4.4086,4.4089,4.4111,4.4109,4.4107,4.4105,4.4269,4.4276,4.4283,0,0,0,0,0,0,0,0,0,0,0,0,0,4.3761,4.3623,4.3918,4.3953,4.3958,4.4084,4.4086,4.4089,4.4111,4.4109,4.4106,4.4104,4.4267,4.4275,4.4284,4.4385,0,0,4.431,4.4314,0,0,0,0,0,0,0,0,4.3753,4.3772,4.3945,4.3951,4.3956,4.4074,4.404,4.4188,4.4112,4.4053,4.4106,4.4103,4.4207,4.422,4.4257,4.4392,4.4399,4.4311,4.4317,4.432,4.4323,0,0,0,0,0,0,0,4.3743,4.3765,4.3984,4.3948,4.3955,4.3959,4.3977,4.4068,4.4141,4.4057,4.406,4.4079,4.4209,4.4248,4.4261,4.4402,4.4311,4.4319,4.4324,4.4328,4.463,4.4633,0,0,0,0,0,0,4.3727,4.3757,4.3978,4.3989,4.3847,4.3966,4.3987,4.4039,4.414,4.4153,4.4081,4.408,4.4234,4.425,4.4266,4.4393,4.432,4.4329,4.4334,4.4628,4.4631,4.4634,0,0,0,0,0,0,4.372,4.3746,4.3972,4.3873,4.3902,4.3974,4.4032,4.4043,4.4082,4.4158,4.417,4.4108,4.4233,4.4254,4.4356,4.4399,4.4332,4.434,4.4624,4.4629,4.4633,4.4645,0,0,0,0,0,0,4.3712,4.3744,4.3784,4.3874,4.3908,4.4059,4.4035,4.4048,4.4098,4.4097,4.4186,4.4198,4.4233,4.4343,4.4365,4.441,4.4347,4.4621,4.4626,4.4631,4.4641,4.4649,4.4656,0,0,0,0,0,4.3701,4.3779,4.3786,4.3812,4.3959,4.4062,4.4081,4.4121,4.4101,4.4141,4.419,4.4195,4.439,4.4353,4.4378,4.4426,4.4618,4.4625,4.4631,4.4638,4.4648,4.4656,0,0,0,0,0,0,4.369,4.3792,4.38,4.391,4.3978,4.4065,4.4117,4.4129,4.4202,4.4199,4.4243,4.4263,4.4363,4.4404,4.4361,4.453,4.4502,4.4514,4.4499,4.4509,4.4517,4.4505,4.4355,0,0,0,0,0,4.3701,4.3777,4.3861,4.395,4.3984,4.4045,4.4091,4.4116,4.4187,4.4215,4.4271,4.4338,4.4415,4.4464,4.4539,4.4647,4.4667,4.4693,4.47,4.4706,4.4716,4.4778,4.479,4.4655,4.4655,4.4654,0,0,4.3723,4.3788,4.3833,4.395,4.4005,4.4082,4.4068,4.415,4.4208,4.4227,4.4327,4.4371,4.4449,4.4555,4.4604,4.4592,4.4757,4.4714,4.4718,4.4725,4.4785,4.4798,4.4809,4.4659,4.4658,4.4657,0,0,4.3804,4.386,4.3942,4.3998,4.4083,4.4123,4.4142,4.4229,4.426,4.4362,4.4378,4.4446,4.4577,4.4632,4.4678,4.4781,4.4789,4.4804,4.4843,4.4903,4.4914,4.4923,4.4961,4.4974,4.4813,4.4813,4.4813,0,4.3821,4.3939,4.3982,4.4065,4.4116,4.4138,4.4221,4.4272,4.4376,4.441,4.4396,4.4562,4.4616,4.4736,4.4762,4.4797,4.4821,4.4794,4.4909,4.4919,4.4929,4.4966,4.498,4.4815,4.4814,4.4814,4.4814,0,4.3957,4.4038,4.4094,4.4196,4.4253,4.4335,4.439,4.4442,4.4462,4.4504,4.4608,4.4673,4.4763,4.4793,4.4812,4.4916,4.4907,4.49,4.4873,4.4942,4.4978,4.4992,4.4817,4.4816,4.4816,4.4815,0,0,4.4035,4.4161,4.4181,4.4228,4.4324,4.4387,4.447,4.456,4.4604,4.4675,4.4746,4.4857,4.4852,4.4903,4.4929,4.4982,4.5061,4.4969,4.4972,4.4985,4.5181,4.5187,4.5202,4.5067,4.507,4.5072,4.5175,0,4.4128,4.4279,4.432,4.4447,4.4524,4.4547,4.4619,4.4685,4.4726,4.4796,4.4841,4.492,4.4907,4.4939,4.4991,4.504,4.5102,4.5033,4.5133,4.5136,4.5114,4.5221,4.5226,4.532,4.5189,4.5192,4.5193,0,4.4256,4.4333,4.4468,4.4556,4.4589,4.4654,4.474,4.4806,4.4882,4.4908,4.4966,4.4988,4.5075,4.5043,4.5164,4.5116,4.5159,4.519,4.5194,4.5206,4.5169,4.5236,4.5351,4.5366,4.5215,4.5214,4.5212,0,4.4302,4.4438,4.4537,4.4577,4.468,4.4726,4.4771,4.4844,4.4895,4.497,4.5004,4.5086,4.5131,4.5195,4.5238,4.5211,4.5355,4.5327,4.5379,4.5378,4.5409,4.5407,4.5534,4.5435,4.5434,4.5434,4.5434,0,4.4402,4.4485,4.4559,4.462,4.4713,4.476,4.485,4.4895,4.496,4.503,4.5054,4.5119,4.5171,4.5243,4.5277,4.5372,4.5392,4.5415,4.5424,4.5414,4.5411,4.5444,4.5439,4.5438,4.5437,4.5436,4.5436,0,4.4469,4.4523,4.4633,4.4723,4.4747,4.4812,4.4888,4.4948,4.499,4.5079,4.5102,4.5168,4.5254,4.5303,4.541,4.5433,4.5539,4.5544,4.5515,4.5519,4.5569,4.5564,4.5722,4.5746,4.5629,4.5631,4.5631,0,4.453,4.4595,4.4692,4.4742,4.4788,4.4867,4.4921,4.4968,4.5023,4.5114,4.5163,4.5251,4.5324,4.5459,4.5516,4.5598,4.5606,4.5656,4.5618,4.5607,4.5608,4.5604,4.5612,4.5662,4.5663,4.5664,4.5665,0,4.4634,4.4658,4.4735,4.4822,4.4885,4.4955,4.5025,4.5063,4.5123,4.5182,4.5272,4.5328,4.5439,4.5526,4.5614,4.5658,4.5672,4.5676,4.5693,4.5684,4.5666,4.5678,4.5534,4.5672,4.5671,4.5671,4.5671,4.567,4.4701,4.476,4.4839,4.4924,4.4982,4.5047,4.5108,4.5159,4.5235,4.533,4.5353,4.5447,4.5521,4.564,4.5688,4.5761,4.5752,4.5776,4.5783,4.5788,4.5791,4.5653,4.5777,4.5777,4.5777,4.5777,4.5776,0,4.4807,4.486,4.4938,4.5035,4.5103,4.5111,4.5188,4.5244,4.5327,4.5395,4.5467,4.557,4.5655,4.5719,4.5805,4.5852,4.586,4.5873,4.5871,4.5881,4.5793,4.577,4.5865,4.5865,4.5865,4.5865,4.5865,4.5865,4.4871,4.4972,4.5005,4.5134,4.5185,4.5279,4.5323,4.5383,4.5438,4.5553,4.5624,4.5666,4.5733,4.5825,4.5903,4.5919,4.595,4.5963,4.598,4.5896,4.5887,4.5878,4.5857,4.5969,4.5969,4.6063,4.6063,4.6064]}]]